• în Republica Moldova
  • Lista ţărilor
  • Pe 7 zile
  • Temperatura apei
  • Hartă satelitară
  • Meteo pe hartă
  • Widget-uri
  • user-avatar
    Intrare

    Meteo pe oră la Tibissa

    Astăzi, 25 Februarie, Sâmbătă

    Timp Temperatura Precipitaţii Vânt Presiune Umiditate
    00:00 +10°C° 0 mm 3 m/s 681 mmHg 72%
    01:00 +9°C° 0 mm 3 m/s 681 mmHg 83%
    02:00 +9°C° 0 mm 3 m/s 681 mmHg 85%
    03:00 +9°C° 0 mm 3 m/s 681 mmHg 86%
    04:00 +8°C° 0 mm 3 m/s 681 mmHg 88%
    05:00 +8°C° 0 mm 3 m/s 681 mmHg 89%
    06:00 +8°C° 0 mm 2 m/s 681 mmHg 91%
    07:00 +7°C° 0 mm 2 m/s 681 mmHg 93%
    08:00 +9°C° 0 mm 2 m/s 682 mmHg 84%
    09:00 +10°C° 0 mm 2 m/s 682 mmHg 74%
    10:00 +13°C° 0 mm 2 m/s 683 mmHg 65%
    11:00 +13°C° 0,2 mm 3 m/s 683 mmHg 61%
    12:00 +13°C° 0,2 mm 3 m/s 683 mmHg 57%
    13:00 +14°C° 0 mm 3 m/s 684 mmHg 52%
    14:00 +13°C° 0,6 mm 3 m/s 683 mmHg 55%
    15:00 +12°C° 0,6 mm 4 m/s 683 mmHg 59%
    16:00 +12°C° 0,6 mm 4 m/s 683 mmHg 62%
    17:00 +9°C° 1,3 mm 5 m/s 683 mmHg 68%
    18:00 +8°C° 1,3 mm 5 m/s 683 mmHg 74%
    19:00 +6°C° 1,3 mm 5 m/s 683 mmHg 81%
    20:00 +6°C° 1 mm 5 m/s 683 mmHg 80%
    21:00 +5°C° 1 mm 5 m/s 684 mmHg 80%
    22:00 +5°C° 1 mm 5 m/s 684 mmHg 79%
    23:00 +5°C° 0,4 mm 5 m/s 684 mmHg 80%

    Mâine, 26 Februarie, Duminică

    Timp Temperatura Precipitaţii Vânt Presiune Umiditate
    00:00 +5°C° 0,4 mm 5 m/s 684 mmHg 80%
    01:00 +3°C° 0,4 mm 5 m/s 684 mmHg 81%
    02:00 +3°C° 0 mm 5 m/s 684 mmHg 82%
    03:00 +3°C° 0 mm 5 m/s 684 mmHg 83%
    04:00 +3°C° 0 mm 6 m/s 684 mmHg 83%
    05:00 +3°C° 0 mm 6 m/s 684 mmHg 84%
    06:00 +3°C° 0 mm 6 m/s 684 mmHg 84%
    07:00 +3°C° 0 mm 6 m/s 684 mmHg 85%
    08:00 +4°C° 0 mm 7 m/s 684 mmHg 80%
    09:00 +5°C° 0 mm 7 m/s 685 mmHg 76%
    10:00 +6°C° 0 mm 8 m/s 685 mmHg 71%
    11:00 +6°C° 0,1 mm 7 m/s 686 mmHg 69%
    12:00 +8°C° 0,1 mm 7 m/s 686 mmHg 67%
    13:00 +8°C° 0,1 mm 7 m/s 686 mmHg 65%
    14:00 +8°C° 0,1 mm 7 m/s 685 mmHg 67%
    15:00 +8°C° 0,1 mm 6 m/s 685 mmHg 69%
    16:00 +8°C° 0,1 mm 6 m/s 685 mmHg 70%
    17:00 +7°C° 0 mm 6 m/s 685 mmHg 75%
    18:00 +7°C° 0 mm 5 m/s 685 mmHg 80%
    19:00 +6°C° 0 mm 5 m/s 685 mmHg 84%
    20:00 +6°C° 0 mm 5 m/s 686 mmHg 86%
    21:00 +5°C° 0 mm 4 m/s 686 mmHg 88%
    22:00 +5°C° 0 mm 4 m/s 686 mmHg 90%
    23:00 +4°C° 0 mm 3 m/s 686 mmHg 91%

    Poimâine, 27 Februarie, Luni

    Timp Temperatura Precipitaţii Vânt Presiune Umiditate
    00:00 +4°C° 0 mm 3 m/s 686 mmHg 92%
    01:00 +4°C° 0 mm 2 m/s 686 mmHg 93%
    02:00 +4°C° 0 mm 2 m/s 686 mmHg 93%
    03:00 +4°C° 0 mm 2 m/s 685 mmHg 93%
    04:00 +3°C° 0 mm 2 m/s 685 mmHg 93%
    05:00 +3°C° 0 mm 2 m/s 685 mmHg 92%
    06:00 +3°C° 0 mm 2 m/s 685 mmHg 91%
    07:00 +4°C° 0 mm 1 m/s 685 mmHg 90%
    08:00 +6°C° 0 mm 1 m/s 685 mmHg 78%
    09:00 +8°C° 0 mm 1 m/s 686 mmHg 66%
    10:00 +11°C° 0 mm 1 m/s 687 mmHg 55%
    11:00 +12°C° 0 mm 1 m/s 687 mmHg 48%
    12:00 +14°C° 0 mm 2 m/s 687 mmHg 42%
    13:00 +15°C° 0 mm 2 m/s 687 mmHg 36%
    14:00 +16°C° 0 mm 2 m/s 686 mmHg 35%
    15:00 +16°C° 0 mm 2 m/s 686 mmHg 34%
    16:00 +17°C° 0 mm 2 m/s 685 mmHg 32%
    17:00 +15°C° 0 mm 2 m/s 685 mmHg 40%
    18:00 +13°C° 0 mm 2 m/s 685 mmHg 48%
    19:00 +10°C° 0 mm 2 m/s 684 mmHg 56%
    20:00 +9°C° 0 mm 2 m/s 684 mmHg 60%
    21:00 +9°C° 0 mm 1 m/s 685 mmHg 65%
    22:00 +8°C° 0 mm 1 m/s 685 mmHg 69%
    23:00 +8°C° 0 mm 1 m/s 685 mmHg 70%

    28 Februarie, Marţi

    Timp Temperatura Precipitaţii Vânt Presiune Umiditate
    00:00 +7°C° 0 mm 1 m/s 684 mmHg 71%
    01:00 +7°C° 0 mm 1 m/s 684 mmHg 72%
    02:00 +7°C° 0 mm 1 m/s 684 mmHg 73%
    03:00 +7°C° 0 mm 1 m/s 684 mmHg 74%
    04:00 +7°C° 0 mm 1 m/s 683 mmHg 75%
    05:00 +6°C° 0 mm 1 m/s 684 mmHg 74%
    06:00 +5°C° 0 mm 2 m/s 684 mmHg 74%
    07:00 +5°C° 0 mm 2 m/s 684 mmHg 73%
    08:00 +8°C° 0 mm 2 m/s 685 mmHg 63%
    09:00 +10°C° 0 mm 2 m/s 685 mmHg 52%
    10:00 +14°C° 0 mm 2 m/s 686 mmHg 42%
    11:00 +15°C° 0 mm 2 m/s 686 mmHg 38%
    12:00 +17°C° 0 mm 3 m/s 686 mmHg 34%
    13:00 +18°C° 0 mm 3 m/s 686 mmHg 30%
    14:00 +18°C° 0 mm 3 m/s 686 mmHg 29%
    15:00 +18°C° 0 mm 3 m/s 686 mmHg 29%
    16:00 +19°C° 0 mm 3 m/s 685 mmHg 29%
    17:00 +16°C° 0 mm 3 m/s 685 mmHg 37%
    18:00 +14°C° 0 mm 2 m/s 685 mmHg 45%
    19:00 +12°C° 0 mm 2 m/s 684 mmHg 53%
    20:00 +10°C° 0 mm 2 m/s 685 mmHg 57%
    21:00 +10°C° 0 mm 1 m/s 685 mmHg 60%
    22:00 +10°C° 0 mm 1 m/s 685 mmHg 64%
    23:00 +9°C° 0 mm 1 m/s 685 mmHg 67%

    1 Martie, Miercuri

    Timp Temperatura Precipitaţii Vânt Presiune Umiditate
    00:00 +9°C° 0 mm 1 m/s 685 mmHg 70%
    01:00 +8°C° 0 mm 1 m/s 685 mmHg 73%
    02:00 +8°C° 0 mm 1 m/s 685 mmHg 75%
    03:00 +7°C° 0 mm 1 m/s 685 mmHg 77%
    04:00 +7°C° 0 mm 1 m/s 685 mmHg 79%
    05:00 +7°C° 0 mm 1 m/s 685 mmHg 81%
    06:00 +6°C° 0 mm 1 m/s 685 mmHg 83%
    07:00 +6°C° 0 mm 1 m/s 686 mmHg 86%
    08:00 +9°C° 0 mm 1 m/s 687 mmHg 77%
    09:00 +11°C° 0 mm 1 m/s 688 mmHg 68%
    10:00 +14°C° 0 mm 2 m/s 689 mmHg 59%
    11:00 +15°C° 0 mm 1 m/s 689 mmHg 52%
    12:00 +16°C° 0 mm 1 m/s 689 mmHg 45%
    13:00 +18°C° 0 mm 1 m/s 689 mmHg 38%
    14:00 +18°C° 0 mm 2 m/s 689 mmHg 36%
    15:00 +18°C° 0 mm 2 m/s 689 mmHg 35%
    16:00 +18°C° 0 mm 2 m/s 688 mmHg 33%
    17:00 +16°C° 0 mm 2 m/s 688 mmHg 41%
    18:00 +14°C° 0 mm 2 m/s 688 mmHg 49%
    19:00 +12°C° 0 mm 2 m/s 688 mmHg 57%
    20:00 +10°C° 0 mm 2 m/s 688 mmHg 61%
    21:00 +11°C° 0 mm 1 m/s 688 mmHg 66%
    22:00 +10°C° 0 mm 1 m/s 689 mmHg 70%
    23:00 +9°C° 0 mm 1 m/s 689 mmHg 72%

    2 Martie, Joi

    Timp Temperatura Precipitaţii Vânt Presiune Umiditate
    00:00 +9°C° 0 mm 1 m/s 688 mmHg 75%
    01:00 +7°C° 0 mm 0 m/s 688 mmHg 77%
    02:00 +7°C° 0 mm 0 m/s 688 mmHg 77%
    03:00 +7°C° 0 mm 0 m/s 688 mmHg 78%
    04:00 +7°C° 0 mm 1 m/s 687 mmHg 78%
    05:00 +7°C° 0 mm 1 m/s 687 mmHg 78%
    06:00 +7°C° 0 mm 1 m/s 688 mmHg 77%
    07:00 +7°C° 0 mm 1 m/s 688 mmHg 77%
    08:00 +10°C° 0 mm 1 m/s 688 mmHg 66%
    09:00 +12°C° 0 mm 1 m/s 689 mmHg 54%
    10:00 +15°C° 0 mm 2 m/s 690 mmHg 43%
    11:00 +16°C° 0 mm 2 m/s 690 mmHg 39%
    12:00 +18°C° 0 mm 2 m/s 690 mmHg 34%
    13:00 +19°C° 0 mm 2 m/s 690 mmHg 30%
    14:00 +19°C° 0 mm 2 m/s 689 mmHg 29%
    15:00 +19°C° 0 mm 2 m/s 689 mmHg 29%
    16:00 +19°C° 0 mm 2 m/s 689 mmHg 28%
    17:00 +17°C° 0 mm 2 m/s 688 mmHg 36%
    18:00 +15°C° 0 mm 2 m/s 688 mmHg 44%
    19:00 +13°C° 0 mm 2 m/s 687 mmHg 52%
    20:00 +12°C° 0 mm 2 m/s 687 mmHg 55%
    21:00 +10°C° 0 mm 2 m/s 687 mmHg 59%
    22:00 +10°C° 0 mm 2 m/s 688 mmHg 62%
    23:00 +9°C° 0 mm 2 m/s 687 mmHg 63%
    Arată mai mult